Wind_Speed
10 10 10 10 10 9 9 9 9 10 10 11 12 12 12 12 12 11 11 12 11 11 10 10 10 10 9 8 8 8 8 8 7 7 6 6 6 6 6 6 6 6 5
9 9 9 9 9 8 8 8 9 9 10 11 11 11 11 11 11 11 11 11 11 11 11 10 9 9 8 8 8 7 7 8 7 7 7 6 6 6 5 5 5 5 5
8 8 9 8 8 8 8 8 8 8 9 10 10 10 11 11 11 11 10 10 11 11 10 9 9 8 8 8 7 7 7 7 7 7 6 6 6 5 5 5 6 5 5
7 7 8 7 7 7 6 6 6 7 8 9 9 9 10 9 10 10 10 10 10 10 10 9 9 9 8 7 7 7 7 6 6 6 6 6 6 5 5 5 5 5 5
7 7 7 7 6 5 5 4 5 5 7 7 8 8 9 8 9 9 9 9 9 9 9 9 9 8 7 7 7 6 6 6 6 6 6 6 6 6 5 5 5 5 5
6 6 6 5 5 5 4 4 4 4 5 5 6 6 7 7 8 7 8 8 8 8 8 8 8 8 7 7 6 7 6 6 5 5 6 6 6 6 6 6 5 5 5
5 5 5 5 4 4 3 3 3 3 3 4 5 5 5 6 7 6 7 7 7 7 7 8 8 7 7 7 7 6 6 6 5 5 5 6 5 6 6 6 6 5 5
5 5 5 5 4 3 3 3 2 2 2 3 4 4 4 5 5 5 6 6 6 7 7 7 7 7 6 6 6 6 6 5 5 5 5 5 5 5 6 5 5 4 4
5 5 4 4 3 3 2 2 2 2 2 3 3 3 3 4 4 4 4 4 5 5 5 6 6 6 6 6 6 6 6 6 6 5 5 5 5 5 5 5 4 4 4
5 5 4 4 3 3 2 2 1 1 1 2 3 2 2 3 3 3 3 3 3 3 3 4 5 5 6 6 6 6 6 6 5 5 5 5 5 6 6 5 5 4 3
6 5 4 4 3 3 2 2 1 1 1 1 1 2 2 2 2 2 2 2 3 3 3 4 4 4 5 5 6 6 6 6 6 5 5 5 5 6 5 5 5 4 4
6 5 5 5 4 3 2 2 2 2 1 0 1 1 1 1 1 2 2 2 2 2 2 2 3 4 4 4 5 5 6 6 6 5 5 5 5 5 5 5 4 4 4
6 5 5 5 5 4 3 3 2 2 1 1 1 1 1 1 1 1 1 2 2 2 2 2 3 3 3 3 4 5 5 6 5 5 5 5 5 5 5 5 4 4 4
7 6 6 5 6 6 4 3 3 2 2 2 2 1 1 1 1 1 1 1 2 2 2 2 2 2 2 3 3 4 4 5 5 5 5 5 5 5 5 5 5 5 4
7 7 6 6 6 6 5 4 3 2 2 2 2 2 1 2 1 1 1 1 0 1 1 1 2 2 3 3 3 3 4 4 5 4 5 5 5 5 5 5 5 5 4
8 7 7 7 7 6 6 5 3 3 3 2 2 2 2 2 2 2 2 1 1 0 0 1 1 2 3 3 3 3 3 3 4 4 4 4 5 4 4 4 5 5 5
8 8 8 8 7 7 6 6 5 4 3 3 3 3 3 3 3 2 2 2 2 1 1 1 1 2 2 2 2 3 3 3 3 4 4 4 4 4 4 4 4 5 4
8 8 8 8 8 8 7 6 5 4 4 4 4 4 4 4 4 3 3 3 3 3 3 2 2 2 2 2 3 3 3 4 4 4 4 4 4 4 4 4 4 4 4
8 9 9 8 8 8 8 7 6 5 5 5 5 5 4 4 4 4 4 4 4 4 4 3 3 3 3 3 3 3 3 4 4 4 4 4 4 4 4 4 4 4 4
8 9 9 9 9 8 8 7 7 6 6 5 6 6 5 4 4 4 5 4 4 4 4 3 3 3 3 3 4 4 4 4 4 4 4 4 4 4 4 4 4 4 4
8 9 9 10 9 8 8 7 7 7 6 6 6 7 6 5 4 5 5 5 5 5 4 3 3 3 4 4 5 5 4 4 4 4 5 5 5 5 5 5 5 5 5
9 9 10 10 9 8 8 8 7 7 7 7 6 6 6 6 5 5 5 5 6 5 5 5 5 5 5 5 5 5 5 5 6 5 6 5 5 6 6 6 5 6 6
9 9 9 9 9 8 8 7 7 8 7 7 7 7 6 6 5 5 5 6 6 6 6 6 6 6 6 6 6 6 6 6 6 6 7 7 7 7 6 6 6 7 7
9 9 9 9 9 9 8 8 8 8 8 8 9 8 7 7 6 6 6 6 7 7 7 8 8 8 7 7 7 7 8 8 7 7 8 8 8 8 8 8 8 8 8
9 9 9 9 9 9 9 8 8 8 9 9 9 9 8 8 8 8 8 8 8 8 8 9 9 9 9 9 9 9 9 9 9 9 9 9 10 10 10 9 9 9 9
9 9 9 9 9 10 10 9 9 10 10 11 11 11 10 10 9 9 9 9 9 9 9 9 9 10 10 10 10 10 10 10 10 11 11 11 11 12 12 11 10 10 10
Wind_Direction
83 81 82 83 83 86 91 96 103 107 108 104 105 106 103 101 100 97 99 100 102 100 101 104 98 95 90 85 82 80 75 71 69 63 63 63 59 54 55 51 51 49 47
85 83 80 82 82 83 87 96 103 108 108 105 106 106 104 102 100 99 99 100 103 101 99 99 99 96 91 85 81 73 67 66 64 62 61 58 52 50 52 52 52 49 48
85 84 82 80 81 81 83 90 101 107 106 108 108 108 106 105 105 105 103 101 102 103 102 99 97 96 91 84 77 67 62 61 63 61 60 56 51 48 50 50 52 54 51
82 83 84 80 77 81 82 88 98 106 110 110 111 110 109 109 107 104 101 100 101 103 102 97 94 89 84 80 76 69 65 63 62 59 54 51 49 48 49 47 46 52 52
80 80 82 80 77 79 86 91 99 107 111 112 113 111 112 111 107 104 101 101 99 98 96 90 88 83 80 76 72 68 65 62 61 56 51 49 48 48 48 45 47 50 53
79 82 83 80 74 72 77 80 97 104 109 112 111 110 113 114 109 101 99 99 99 97 94 89 83 76 71 71 68 65 61 56 59 54 54 53 51 52 49 45 47 49 52
79 83 83 79 76 76 74 70 89 95 104 111 108 106 107 109 110 105 103 101 99 98 93 86 81 72 68 68 67 66 59 54 51 48 52 53 53 53 49 45 48 50 50
74 75 74 74 72 67 68 82 82 80 92 105 111 111 114 113 111 108 107 97 98 97 91 85 81 72 67 67 69 64 59 53 50 48 52 54 53 51 47 43 43 49 51
64 62 63 65 61 54 42 50 55 80 87 103 118 117 121 114 113 116 111 102 96 95 92 85 77 70 66 66 64 60 56 53 51 53 53 53 50 44 39 39 42 50 51
60 60 57 52 48 38 25 31 51 61 82 90 103 116 117 120 112 108 110 107 100 98 87 77 74 68 65 62 60 58 56 53 51 54 50 47 44 40 41 42 42 53 51
57 56 47 37 33 29 21 19 8 5 21 54 94 119 106 115 118 111 108 103 97 89 79 77 72 68 62 59 57 56 54 55 51 47 47 45 43 40 43 46 48 55 51
58 52 44 37 31 27 24 19 6 359 348 357 57 86 54 80 101 94 89 97 91 83 75 73 65 61 56 52 51 51 48 51 52 46 44 44 42 39 43 47 52 53 50
46 44 34 32 26 18 15 13 14 349 331 318 319 1 353 27 73 82 73 87 94 88 73 67 60 54 49 43 44 48 47 47 50 45 46 45 45 44 45 44 50 53 54
36 34 29 26 18 14 9 358 2 349 319 296 285 302 325 345 21 41 35 88 92 82 71 69 62 47 38 32 38 41 39 41 45 44 44 45 44 44 44 44 45 47 55
29 28 25 18 16 13 7 355 353 347 331 328 326 312 320 334 337 339 318 351 26 97 80 58 30 38 32 26 25 26 30 33 37 35 38 36 36 37 37 36 38 41 44
26 23 21 16 15 10 2 356 351 340 336 334 327 314 302 300 296 307 322 335 338 43 37 355 10 28 16 14 13 9 11 17 22 24 23 25 27 26 26 24 24 30 35
22 20 18 12 8 5 2 356 349 338 333 330 324 312 302 294 292 294 315 327 331 323 301 302 323 342 353 0 359 353 353 3 8 7 8 11 9 8 9 11 15 18 25
13 10 9 8 4 358 357 352 346 337 327 324 323 314 304 297 297 294 296 308 315 305 302 313 322 316 316 327 337 339 342 345 352 359 3 2 359 359 4 6 5 9 14
4 3 1 359 356 354 353 352 348 338 326 322 322 326 312 298 289 289 285 293 305 297 294 307 324 325 315 314 317 320 329 333 334 340 348 350 350 353 351 350 352 355 358
355 355 356 355 352 349 348 347 344 337 329 321 320 326 320 299 287 286 280 285 293 292 290 301 320 319 317 315 314 314 315 314 322 327 333 340 343 342 339 337 336 334 338
349 347 347 347 347 345 344 345 342 336 330 322 322 321 316 302 294 290 281 287 287 283 282 297 312 310 309 307 308 309 305 311 315 320 323 322 326 328 328 325 323 322 322
338 338 339 342 342 341 339 337 337 334 331 326 323 322 316 308 300 295 288 289 290 289 283 286 294 302 302 299 302 303 299 300 301 309 316 318 320 322 324 323 315 312 310
327 331 334 339 338 335 337 335 333 332 329 326 324 321 319 313 303 294 289 288 285 284 284 282 285 288 293 294 295 298 298 297 296 302 308 312 314 315 318 319 315 311 309
319 325 330 332 334 332 332 330 326 326 330 327 328 316 306 306 304 299 298 293 286 284 285 283 284 282 285 286 285 289 295 292 294 299 302 306 308 307 307 306 309 310 309
313 319 325 327 326 326 328 327 323 323 324 325 321 319 309 306 300 295 296 295 289 286 284 283 280 279 279 275 277 282 289 294 296 297 299 300 303 303 304 301 298 299 300
309 315 321 323 322 322 320 319 319 317 319 320 319 315 313 306 302 297 294 292 287 286 288 285 281 281 277 272 275 279 283 287 289 293 295 297 300 299 299 298 299 298 295
Height
5882 5881 5881 5881 5881 5880 5880 5880 5880 5880 5880 5880 5880 5880 5880 5880 5881 5881 5881 5881 5882 5882 5883 5883 5884 5884 5885 5885 5885 5885 5886 5886 5886 5886 5886 5886 5886 5885 5885 5885 5885 5885 5885
5883 5883 5883 5883 5883 5883 5882 5882 5882 5882 5882 5882 5882 5882 5882 5883 5883 5883 5883 5883 5884 5884 5884 5885 5886 5886 5886 5886 5887 5887 5887 5887 5887 5887 5886 5886 5886 5886 5886 5886 5886 5886 5886
5885 5885 5885 5885 5885 5885 5885 5884 5884 5884 5884 5884 5884 5884 5884 5885 5885 5884 5885 5885 5885 5886 5886 5887 5887 5887 5888 5888 5888 5888 5888 5888 5888 5888 5887 5887 5887 5887 5887 5887 5887 5887 5887
5887 5887 5887 5887 5887 5887 5886 5886 5886 5886 5886 5886 5886 5886 5886 5886 5886 5887 5887 5887 5887 5888 5888 5889 5889 5889 5889 5889 5890 5890 5890 5890 5889 5889 5889 5888 5888 5888 5888 5888 5888 5888 5888
5888 5888 5889 5889 5889 5889 5888 5888 5888 5888 5888 5888 5888 5888 5888 5888 5888 5889 5889 5889 5889 5889 5890 5890 5891 5891 5891 5891 5891 5891 5891 5891 5891 5890 5890 5890 5889 5889 5889 5889 5888 5888 5888
5890 5890 5890 5890 5891 5890 5890 5890 5890 5890 5890 5890 5890 5890 5890 5890 5890 5890 5891 5891 5891 5891 5892 5892 5892 5892 5892 5893 5892 5892 5892 5892 5892 5891 5891 5891 5890 5890 5890 5889 5889 5889 5889
5892 5891 5891 5892 5892 5892 5892 5891 5891 5891 5891 5891 5891 5891 5891 5892 5892 5892 5892 5893 5893 5893 5894 5894 5894 5894 5894 5894 5893 5893 5893 5893 5893 5893 5892 5892 5891 5891 5891 5890 5890 5890 5890
5893 5893 5893 5893 5893 5893 5893 5893 5893 5893 5893 5893 5893 5893 5893 5893 5893 5894 5894 5894 5895 5895 5895 5895 5895 5895 5895 5895 5894 5894 5894 5894 5894 5894 5893 5893 5892 5892 5891 5891 5891 5890 5890
5894 5894 5894 5894 5894 5894 5894 5894 5894 5894 5894 5894 5894 5895 5895 5895 5895 5895 5896 5896 5896 5896 5896 5896 5896 5896 5896 5896 5896 5895 5895 5895 5895 5894 5894 5893 5893 5893 5892 5891 5891 5891 5891
5896 5896 5896 5896 5896 5896 5896 5895 5896 5896 5896 5895 5896 5896 5896 5897 5897 5897 5897 5897 5898 5898 5898 5898 5898 5898 5898 5897 5897 5897 5896 5896 5896 5895 5895 5894 5894 5893 5892 5892 5891 5891 5891
5897 5897 5897 5897 5897 5897 5897 5897 5897 5897 5897 5897 5897 5897 5897 5898 5898 5898 5898 5898 5899 5899 5899 5899 5899 5899 5899 5898 5898 5898 5897 5897 5897 5896 5896 5895 5895 5894 5893 5893 5892 5892 5892
5898 5898 5898 5898 5898 5898 5898 5898 5898 5898 5898 5898 5898 5898 5898 5899 5899 5899 5899 5899 5900 5900 5900 5900 5900 5900 5900 5899 5899 5899 5898 5898 5898 5897 5896 5896 5895 5895 5894 5894 5893 5893 5893
5900 5900 5900 5899 5899 5899 5899 5899 5899 5898 5898 5899 5899 5899 5899 5899 5900 5900 5900 5900 5900 5900 5901 5901 5901 5901 5901 5900 5900 5900 5899 5898 5898 5898 5897 5897 5896 5896 5895 5895 5894 5894 5893
5901 5901 5901 5901 5900 5900 5900 5900 5899 5899 5899 5899 5900 5900 5900 5900 5901 5901 5901 5901 5901 5901 5901 5901 5901 5901 5901 5901 5901 5901 5900 5900 5899 5899 5898 5897 5897 5897 5896 5896 5895 5895 5894
5903 5903 5902 5902 5901 5901 5901 5900 5900 5900 5900 5900 5900 5900 5900 5901 5901 5901 5901 5901 5901 5901 5902 5902 5902 5902 5902 5902 5901 5901 5901 5900 5900 5899 5899 5898 5898 5897 5897 5896 5896 5896 5895
5904 5904 5903 5903 5902 5902 5901 5901 5901 5901 5900 5901 5901 5901 5901 5901 5901 5901 5901 5901 5902 5902 5902 5902 5902 5902 5902 5902 5902 5902 5901 5901 5900 5900 5899 5899 5899 5898 5897 5897 5897 5896 5896
5906 5905 5904 5904 5903 5903 5902 5902 5901 5901 5901 5901 5901 5901 5901 5901 5901 5901 5902 5902 5902 5902 5902 5903 5903 5902 5902 5902 5902 5902 5902 5901 5901 5900 5900 5899 5899 5898 5898 5898 5897 5897 5896
5906 5906 5905 5905 5904 5904 5903 5902 5902 5902 5901 5901 5901 5901 5901 5901 5901 5901 5902 5902 5902 5902 5902 5902 5903 5902 5902 5902 5902 5902 5901 5901 5901 5900 5900 5900 5899 5899 5898 5898 5897 5897 5896
5907 5906 5906 5905 5905 5904 5903 5903 5902 5902 5902 5902 5902 5901 5901 5901 5901 5902 5902 5902 5902 5902 5902 5902 5902 5902 5902 5902 5902 5902 5901 5901 5900 5900 5900 5900 5899 5899 5898 5898 5897 5897 5896
5907 5907 5906 5905 5905 5904 5903 5903 5903 5902 5902 5902 5901 5901 5901 5901 5901 5901 5901 5901 5902 5902 5902 5902 5902 5902 5902 5902 5902 5901 5901 5901 5900 5900 5900 5899 5899 5899 5898 5897 5897 5896 5896
5908 5907 5906 5905 5905 5904 5904 5903 5903 5902 5902 5902 5901 5901 5901 5900 5901 5901 5901 5901 5901 5901 5901 5901 5901 5901 5901 5901 5901 5901 5900 5900 5900 5900 5899 5899 5899 5898 5897 5897 5896 5896 5895
5907 5907 5906 5905 5905 5904 5903 5903 5903 5902 5902 5901 5901 5900 5900 5900 5900 5900 5900 5901 5901 5900 5900 5900 5901 5901 5901 5900 5900 5900 5900 5900 5900 5899 5899 5898 5898 5897 5896 5896 5896 5895 5894
5907 5906 5906 5905 5904 5904 5903 5903 5902 5902 5902 5901 5901 5900 5900 5900 5899 5899 5899 5899 5900 5900 5900 5899 5900 5900 5900 5900 5899 5899 5899 5899 5899 5899 5898 5897 5897 5896 5895 5895 5894 5894 5893
5906 5906 5905 5905 5904 5903 5903 5902 5902 5902 5901 5901 5900 5899 5899 5899 5899 5899 5898 5898 5899 5899 5899 5898 5898 5898 5898 5898 5898 5898 5898 5897 5897 5897 5897 5896 5895 5894 5894 5893 5893 5892 5892
5905 5905 5904 5904 5903 5902 5902 5902 5901 5901 5901 5900 5899 5898 5898 5898 5898 5897 5897 5897 5897 5897 5897 5897 5896 5896 5896 5896 5896 5896 5896 5895 5895 5895 5895 5894 5893 5892 5892 5891 5890 5890 5889
5904 5904 5903 5903 5902 5902 5901 5901 5900 5900 5899 5899 5898 5898 5897 5896 5896 5896 5896 5895 5895 5895 5895 5895 5894 5894 5893 5893 5893 5894 5894 5893 5893 5892 5892 5892 5891 5890 5889 5889 5888 5888 5887